GW0579 Weather Reports


time (UTC)temp
C
wind
direction
speed
KPH
gust
KPH
rain 1hr
cm
rain 24hr
cm
rain mn
cm
humidity
%
barometer
mb
20260507051005 12 32 0.0 3.2 0.00 0.00 0.00 81 1021.5
20260507050008 12 32 0.0 3.2 0.00 0.00 0.00 81 1021.3
20260507045006 12 32 1.6 3.2 0.00 0.00 0.00 81 1021.4
20260507044005 12 32 0.0 1.6 0.00 0.00 0.00 82 1021.4
20260507043006 12 32 0.0 1.6 0.00 0.00 0.00 81 1021.4
20260507042006 12 32 0.0 4.8 0.00 0.00 0.00 81 1021.4
20260507041005 12 32 0.0 3.2 0.00 0.00 0.00 81 1021.4
20260507040007 12 32 0.0 3.2 0.00 0.00 0.00 82 1021.3
20260507035006 12 32 0.0 4.8 0.00 0.00 0.00 80 1021.3
20260507031006 13 36 0.0 1.6 0.00 0.00 0.00 80 1021.0
20260507030008 13 36 0.0 1.6 0.00 0.00 0.00 81 1020.9
20260507025006 13 36 1.6 6.4 0.00 0.00 0.00 79 1020.6
20260507024006 13 38 1.6 3.2 0.00 0.00 0.00 79 1020.6
20260507022005 13 38 0.0 4.8 0.00 0.00 0.00 79 1020.3
20260507021007 13 105 0.0 3.2 0.00 0.00 0.00 78 1020.5
20260507020008 14 165 1.6 11.3 0.00 0.00 0.00 78 1020.5
20260507015007 14 38 1.6 3.2 0.00 0.00 0.00 78 1020.6
20260507013006 14 38 1.6 6.4 0.00 0.00 0.00 76 1020.7
20260507012006 14 279 1.6 4.8 0.00 0.00 0.00 76 1020.6
20260507010008 14 194 1.6 8.0 0.00 0.00 0.00 75 1020.7
20260507005006 15 31 1.6 6.4 0.00 0.00 0.00 76 1020.7
20260507004005 15 154 1.6 4.8 0.00 0.00 0.00 76 1020.6
20260507003006 15 10 1.6 6.4 0.00 0.00 0.00 76 1020.6
20260507002005 15 175 1.6 8.0 0.00 0.00 0.00 78 1020.7
20260507001007 15 106 1.6 4.8 0.00 0.00 0.00 77 1020.7
20260507000009 15 189 1.6 4.8 0.00 0.00 0.00 77 1020.8
20260506235007 15 106 1.6 4.8 0.00 0.00 0.00 76 1020.7
20260506234006 15 173 1.6 6.4 0.00 0.00 0.00 76 1020.9
20260506233006 15 24 1.6 4.8 0.00 0.00 0.00 76 1020.9
20260506232006 15 278 1.6 6.4 0.00 0.00 0.00 76 1020.8
20260506231005 15 337 1.6 3.2 0.00 0.00 0.00 76 1020.7
20260506222006 15 207 3.2 6.4 0.00 0.00 0.00 76 1021.0
20260506221006 15 36 3.2 4.8 0.00 0.00 0.00 76 1021.2
20260506220008 15 273 3.2 12.9 0.00 0.00 0.00 74 1021.1
20260506214005 15 123 3.2 8.0 0.00 0.00 0.00 75 1021.1
20260506213003 15 221 3.2 8.0 0.00 0.00 0.00 75 1021.0
20260506212004 15 216 1.6 4.8 0.00 0.00 0.00 76 1021.1
20260506211005 15 194 1.6 6.4 0.00 0.00 0.00 78 1021.0
20260506210007 14 208 3.2 6.4 0.00 0.00 0.00 77 1021.1
20260506205005 14 327 3.2 9.7 0.00 0.00 0.00 77 1021.1
20260506204005 14 39 1.6 4.8 0.00 0.00 0.00 78 1021.0
20260506203005 14 225 3.2 4.8 0.00 0.00 0.00 78 1021.0
20260506202004 14 310 3.2 4.8 0.00 0.00 0.00 78 1020.9
20260506201004 14 208 3.2 8.0 0.00 0.00 0.00 77 1020.9
20260506195005 14 188 3.2 6.4 0.00 0.00 0.00 77 1020.8
20260506194005 14 238 3.2 6.4 0.00 0.00 0.00 77 1020.8
20260506193006 14 109 1.6 6.4 0.00 0.00 0.00 77 1020.9
20260506192004 14 25 1.6 4.8 0.00 0.00 0.00 76 1020.8
20260506184005 14 33 1.6 8.0 0.00 0.00 0.00 78 1020.7
20260506183005 14 284 3.2 8.0 0.00 0.00 0.00 77 1020.7
20260506182005 14 260 3.2 16.1 0.00 0.00 0.00 77 1020.7
20260506181005 14 141 3.2 8.0 0.00 0.00 0.00 77 1020.5
20260506180007 14 219 1.6 4.8 0.00 0.00 0.00 77 1020.3
20260506175004 14 357 3.2 6.4 0.00 0.00 0.00 77 1020.3
20260506174005 13 244 3.2 9.7 0.00 0.00 0.00 79 1020.4
20260506173005 13 29 3.2 6.4 0.00 0.00 0.00 77 1020.2
20260506172004 13 102 1.6 8.0 0.00 0.00 0.00 80 1020.2
20260506171005 13 26 1.6 4.8 0.00 0.00 0.00 80 1020.3
20260506170008 13 26 1.6 4.8 0.00 0.00 0.00 80 1020.4
20260506165005 13 312 1.6 6.4 0.00 0.00 0.00 81 1020.3
20260506164004 13 188 1.6 6.4 0.00 0.00 0.00 81 1020.3
20260506163004 13 46 1.6 8.0 0.00 0.00 0.00 82 1020.2
20260506162004 13 244 1.6 6.4 0.00 0.00 0.00 82 1020.1
20260506161005 12 106 1.6 6.4 0.00 0.00 0.00 83 1020.0
20260506160008 12 27 1.6 4.8 0.00 0.00 0.00 83 1019.9
20260506155004 12 27 1.6 6.4 0.00 0.00 0.00 83 1019.9
20260506154006 12 10 0.0 6.4 0.00 0.00 0.00 85 1019.9
20260506153004 12 32 1.6 4.8 0.00 0.00 0.00 86 1019.9
20260506152005 12 32 1.6 6.4 0.00 0.00 0.00 87 1019.9
20260506151005 11 25 1.6 11.3 0.00 0.00 0.00 86 1020.1
20260506150007 11 183 1.6 4.8 0.00 0.00 0.00 88 1020.2
20260506145005 11 351 1.6 3.2 0.00 0.00 0.00 88 1019.8
20260506144005 11 346 1.6 3.2 0.00 0.00 0.00 88 1019.9
20260506143005 11 356 1.6 4.8 0.00 0.00 0.00 88 1019.9
20260506142006 11 356 1.6 3.2 0.00 0.00 0.00 88 1019.6
20260506141004 11 355 0.0 3.2 0.00 0.00 0.00 89 1019.4
20260506140006 11 348 0.0 3.2 0.00 0.00 0.00 89 1019.5
20260506135004 11 348 0.0 3.2 0.00 0.00 0.00 90 1019.5
20260506134003 11 348 1.6 3.2 0.00 0.00 0.00 89 1019.5
20260506133004 11 334 0.0 3.2 0.00 0.00 0.00 90 1019.4
20260506132003 11 287 0.0 6.4 0.00 0.00 0.00 90 1019.4
20260506131003 11 300 0.0 4.8 0.00 0.00 0.00 90 1019.4
20260506130006 11 23 0.0 3.2 0.00 0.00 0.00 90 1019.3
20260506125004 11 298 0.0 3.2 0.00 0.00 0.00 90 1019.1
20260506124004 11 248 1.6 8.0 0.00 0.00 0.00 90 1019.1
20260506123004 11 41 0.0 3.2 0.00 0.00 0.00 90 1019.1
20260506122004 11 41 0.0 1.6 0.00 0.00 0.00 90 1019.0
20260506121004 11 41 1.6 6.4 0.00 0.00 0.00 90 1019.0
20260506120005 11 24 1.6 4.8 0.00 0.00 0.00 90 1019.0
20260506115005 11 237 0.0 4.8 0.00 0.00 0.00 90 1018.9
20260506114004 11 40 0.0 3.2 0.00 0.00 0.00 90 1018.8
20260506113004 11 40 0.0 3.2 0.00 0.00 0.00 91 1018.7
20260506112003 11 40 0.0 3.2 0.00 0.00 0.00 91 1018.7
20260506111004 11 40 0.0 1.6 0.00 0.00 0.00 91 1018.8
20260506110005 11 40 0.0 1.6 0.00 0.00 0.00 91 1018.7
20260506105003 11 40 0.0 3.2 0.00 0.00 0.00 91 1018.6
20260506104004 11 40 0.0 6.4 0.00 0.00 0.00 91 1018.5
20260506103003 11 38 0.0 1.6 0.00 0.00 0.00 91 1018.5
20260506102004 11 38 0.0 4.8 0.00 0.00 0.00 91 1018.5
20260506101004 11 38 0.0 1.6 0.00 0.00 0.00 91 1018.4
20260506100006 11 38 1.6 4.8 0.00 0.00 0.00 92 1018.3
20260506095004 11 38 0.0 1.6 0.00 0.00 0.00 92 1018.2
20260506094004 11 38 0.0 1.6 0.00 0.00 0.00 92 1018.2
20260506092004 11 38 0.0 1.6 0.00 0.00 0.00 93 1018.1
20260506091003 11 38 0.0 3.2 0.00 0.00 0.00 94 1018.0
20260506090006 11 38 0.0 0.0 0.00 0.00 0.00 95 1018.1
20260506085004 11 38 0.0 1.6 0.00 0.00 0.00 95 1018.0
20260506084003 11 38 0.0 0.0 0.00 0.00 0.00 95 1018.0
20260506083004 11 38 0.0 0.0 0.00 0.00 0.00 95 1017.8
20260506082003 10 38 0.0 0.0 0.00 0.00 0.00 95 1017.8
20260506081004 10 38 0.0 1.6 0.00 0.00 0.00 96 1017.7
20260506073008 10 38 0.0 0.0 0.00 0.00 0.00 94 1017.4
20260506072007 10 38 0.0 0.0 0.00 0.00 0.00 94 1017.4
20260506071007 10 38 0.0 0.0 0.00 0.00 0.00 94 1017.2
20260506062006 10 38 0.0 0.0 0.00 0.00 0.00 93 1016.8
20260506061006 11 38 0.0 0.0 0.00 0.00 0.00 92 1016.7